To NAV CANADA Home Page Login to a new session Search on AWWS site Feedback and Comments Disclaimer Vers la page française équivalente Tips FAQ What's new on the site To the Forecasts and Observations / NOTAM section To "File a Flight Plan" website Publications and other links Update of the User's profile FIC Telephone Numbers My Weather Data Folder Route Weather Data Regional Weather Data Local Weather Data To the Forecasts and Observations / NOTAM section
Request Generated 02/13/2016 at 19:16:28 UTC . Weather information available at that time is displayed.

METAR/TAF

SANIKILUAQ/NU    

LWIS CYSK 131900Z AUTO 29018KT M20/M23 A3017=
LWIS CYSK 131800Z AUTO 28017KT M21/M24 A3016=
LWIS CYSK 131700Z AUTO 24014KT M24/M27 A3018=

CYSK - No TAF is issued for this station

Your time UTC time
Weather data provided by Environment Canada and NAV CANADA